This demonstration page uses our WeatherBlox Daily Observations layout. Learn more.

Left ArrowRight Arrow

34.16533, -84.80231

Hourly Observations for August 19, 2022

Temp ( °F °C ) Dew Point ( °F °C ) Humidity (%) Winds ( mph kmh ) Pressure ( in mb ) Visibility ( mi km ) Precip ( " mm )
12:15 am 00:15 Cloudy 72 22 72 22 100 100 Calm 29.97 1015 8 13 0.00 0.00
12:35 am 00:35 Cloudy 72 22 70 21 94 94 Calm 29.97 1015 10 16 0.00 0.00
12:55 am 00:55 Mostly Cloudy 72 22 70 21 94 94 Calm 29.97 1015 9 14 0.00 0.00
1:15 am 01:15 Cloudy 72 22 72 22 100 100 Calm 29.98 1015 9 14 0.00 0.00
1:35 am 01:35 Mostly Cloudy 72 22 72 22 100 100 Calm 29.98 1015 7 11 0.00 0.00
1:55 am 01:55 Cloudy with Mist and Fog 72 22 72 22 100 100 Calm 29.98 1015 5 8 0.00 0.00
2:15 am 02:15 Cloudy 72 22 70 21 94 94 Calm 29.98 1015 8 13 0.00 0.00
2:35 am 02:35 Mostly Cloudy 72 22 70 21 94 94 Calm 29.98 1015 9 14 0.00 0.00
2:55 am 02:55 Cloudy 72 22 70 21 94 94 Calm 29.98 1015 10 16 0.00 0.00
3:15 am 03:15 Cloudy 72 22 70 21 94 94 Calm 29.98 1015 9 14 0.00 0.00
3:35 am 03:35 Mostly Cloudy 72 22 70 21 94 94 Calm 29.98 1015 7 11 0.00 0.00
3:55 am 03:55 Cloudy 70 21 70 21 100 100 Calm 29.98 1015 9 14 0.00 0.00
4:15 am 04:15 Mostly Cloudy with Mist and Fog 70 21 70 21 100 100 Calm 29.98 1015 6 10 0.00 0.00
4:35 am 04:35 Cloudy with Mist and Fog 70 21 70 21 100 100 Calm 29.98 1015 5 8 0.00 0.00
4:55 am 04:55 Cloudy 70 21 70 21 100 100 Calm 29.98 1015 8 13 0.00 0.00
5:15 am 05:15 Cloudy 70 21 70 21 100 100 Calm 29.98 1015 8 13 0.00 0.00
5:35 am 05:35 Cloudy 70 21 70 21 100 100 Calm 29.98 1015 9 14 0.00 0.00
5:55 am 05:55 Cloudy 70 21 70 21 100 100 Calm 29.98 1015 8 13 0.00 0.00
6:15 am 06:15 Cloudy 70 21 70 21 100 100 Calm 29.98 1015 7 11 0.00 0.00
6:35 am 06:35 Partly Cloudy 70 21 70 21 100 100 Calm 29.98 1015 7 11 0.00 0.00
6:55 am 06:55 Clear 70 21 70 21 100 100 Calm 29.99 1016 7 11 0.00 0.00
7:15 am 07:15 Sunny 70 21 68 20 94 94 Calm 29.99 1016 9 14 0.00 0.00
7:35 am 07:35 Sunny 70 21 70 21 100 100 Calm 29.99 1016 8 13 0.00 0.00
7:55 am 07:55 Partly Cloudy with Mist and Fog 70 21 70 21 100 100 Calm 30.00 1016 5 8 0.00 0.00
8:15 am 08:15 Partly Cloudy with Mist and Fog 70 21 70 21 100 100 Calm 30.00 1016 5 8 0.00 0.00
8:35 am 08:35 Mostly Sunny 72 22 72 22 100 100 Calm 30.01 1016 7 11 0.00 0.00
8:55 am 08:55 Mostly Cloudy 73 23 72 22 94 94 NE 3 6 30.00 1016 9 14 0.00 0.00
9:15 am 09:15 Cloudy 73 23 72 22 94 94 VRB 3 6 30.00 1016 10 16 0.00 0.00
9:35 am 09:35 Cloudy 73 23 70 21 89 89 VRB 6 9 30.02 1016 10 16 0.00 0.00
9:55 am 09:55 Mostly Cloudy 73 23 72 22 94 94 VRB 5 7 30.02 1016 10 16 0.00 0.00
10:15 am 10:15 Cloudy 75 24 72 22 89 89 E 7 11 30.02 1017 10 16 0.00 0.00
10:35 am 10:35 Cloudy 77 25 72 22 83 83 Calm 30.02 1017 10 16 0.00 0.00
10:55 am 10:55 Cloudy 77 25 72 22 83 83 E 7 11 30.01 1016 10 16 0.00 0.00
11:15 am 11:15 Mostly Cloudy 79 26 72 22 79 79 undefined N/A 30.02 1016 10 16 0.00 0.00
11:35 am 11:35 Mostly Cloudy 77 25 72 22 83 83 E 6 9 30.02 1017 10 16 0.00 0.00
11:55 am 11:55 Cloudy 79 26 72 22 79 79 E 7 11 30.02 1016 10 16 0.00 0.00
12:15 pm 12:15 Mostly Cloudy 77 25 72 22 83 83 E 8 13 30.02 1017 10 16 0.00 0.00
12:35 pm 12:35 Cloudy 77 25 72 22 83 83 ESE 7 11 30.02 1017 10 16 0.00 0.00
12:55 pm 12:55 Mostly Cloudy 79 26 72 22 79 79 E 7 11 30.02 1016 10 16 0.00 0.00
1:15 pm 13:15 Mostly Cloudy with Light Rain 77 25 72 22 83 83 E 7 11 30.01 1016 8 13 0.00 0.00
1:35 pm 13:35 Mostly Cloudy 77 25 72 22 83 83 E 9 15 30.01 1016 10 16 0.00 0.00
1:55 pm 13:55 Cloudy 77 25 72 22 83 83 E 8 13 30.00 1016 10 16 0.00 0.00
2:15 pm 14:15 Mostly Cloudy with Light Rain 79 26 72 22 79 79 VRB 6 9 30.00 1016 8 13 0.00 0.00
2:35 pm 14:35 Cloudy 77 25 72 22 83 83 VRB 3 6 30.00 1016 10 16 0.00 0.00
2:55 pm 14:55 Mostly Cloudy with Light Rain 77 25 72 22 83 83 Calm 30.00 1016 6 10 0.03 0.76
3:15 pm 15:15 Mostly Cloudy with Light Rain 77 25 72 22 83 83 VRB 3 6 29.99 1016 5 8 0.00 0.00
3:35 pm 15:35 Mostly Cloudy 77 25 73 23 89 89 VRB 3 6 29.99 1016 10 16 0.00 0.00
3:55 pm 15:55 Mostly Cloudy 81 27 72 22 74 74 VRB 7 11 29.97 1015 10 16 0.01 0.25
4:15 pm 16:15 Mostly Cloudy 79 26 72 22 79 79 ESE 8 13 29.98 1015 10 16 0.00 0.00
4:35 pm 16:35 Mostly Cloudy 81 27 72 22 74 74 VRB 6 9 29.97 1015 10 16 0.00 0.00
4:55 pm 16:55 Mostly Cloudy 79 26 72 22 79 79 VRB 7 11 29.98 1015 10 16 0.00 0.00
5:15 pm 17:15 Mostly Cloudy 81 27 72 22 74 74 ESE 7 11 29.96 1015 10 16 0.00 0.00
5:35 pm 17:35 Cloudy 81 27 70 21 70 70 SE 9 15 29.97 1015 10 16 0.00 0.00
5:55 pm 17:55 Cloudy 79 26 70 21 74 74 SE 7 11 29.98 1015 10 16 0.00 0.00
6:15 pm 18:15 Mostly Cloudy 79 26 70 21 74 74 E 3 6 29.98 1015 10 16 0.00 0.00
6:35 pm 18:35 Partly Cloudy 79 26 70 21 74 74 Calm 29.99 1015 10 16 0.00 0.00
6:55 pm 18:55 Partly Cloudy 77 25 72 22 83 83 Calm 29.99 1016 10 16 0.00 0.00
7:15 pm 19:15 Partly Cloudy 77 25 72 22 83 83 Calm 29.99 1016 10 16 0.00 0.00
7:35 pm 19:35 Partly Cloudy 77 25 72 22 83 83 Calm 30.01 1016 10 16 0.00 0.00
7:55 pm 19:55 Mostly Cloudy with Light Rain 77 25 72 22 83 83 SE 5 7 30.00 1016 10 16 0.00 0.00
8:15 pm 20:15 Partly Cloudy with Thunderstorms 75 24 72 22 89 89 E 3 6 30.01 1016 10 16 0.00 0.00
8:35 pm 20:35 Mostly Clear with Light Rain 75 24 72 22 89 89 Calm 30.02 1017 10 16 0.00 0.00
8:55 pm 20:55 Mostly Cloudy 75 24 72 22 89 89 Calm 30.03 1017 10 16 0.00 0.00
9:15 pm 21:15 Cloudy 75 24 72 22 89 89 Calm 30.03 1017 10 16 0.00 0.00
9:35 pm 21:35 Partly Cloudy 73 23 72 22 94 94 SE 3 6 30.02 1017 10 16 0.00 0.00
9:55 pm 21:55 Clear 73 23 72 22 94 94 SE 5 7 30.03 1017 10 16 0.00 0.00
10:15 pm 22:15 Clear 73 23 70 21 89 89 Calm 30.03 1017 10 16 0.00 0.00
10:35 pm 22:35 Clear 73 23 72 22 94 94 Calm 30.05 1017 10 16 0.00 0.00
10:55 pm 22:55 Mostly Cloudy 73 23 70 21 89 89 Calm 30.05 1018 10 16 0.00 0.00
11:15 pm 23:15 Partly Cloudy 73 23 70 21 89 89 SE 3 6 30.05 1018 10 16 0.00 0.00
11:35 pm 23:35 Clear 73 23 70 21 89 89 VRB 3 6 30.06 1018 10 16 0.00 0.00
11:55 pm 23:55 Mostly Clear 73 23 70 21 89 89 E 3 6 30.06 1018 10 16 0.00 0.00

Powered by AerisWeather